TimeEDT,TemperatureF,Dew PointF,Humidity,Sea Level PressureIn,VisibilityMPH,Wind Direction,Wind SpeedMPH,Gust SpeedMPH,PrecipitationIn,Events,Conditions,WindDirDegrees,DateUTC
12:15 AM,68.0,66.2,94,30.40,10.0,West,11.5,-,N/A,,Clear,260,2013-09-11 04:15:00
12:35 AM,68.0,66.2,94,30.40,10.0,West,9.2,-,N/A,,Clear,260,2013-09-11 04:35:00
12:55 AM,68.0,66.2,94,30.40,10.0,West,10.4,-,N/A,,Clear,270,2013-09-11 04:55:00
1:15 AM,68.0,66.2,94,30.39,10.0,West,8.1,-,N/A,,Clear,270,2013-09-11 05:15:00
1:35 AM,68.0,66.2,94,30.39,10.0,West,10.4,-,N/A,,Clear,280,2013-09-11 05:35:00
1:55 AM,68.0,66.2,94,30.39,10.0,West,9.2,-,N/A,,Clear,270,2013-09-11 05:55:00
2:15 AM,66.2,66.2,100,30.38,10.0,West,8.1,-,N/A,,Clear,270,2013-09-11 06:15:00
2:35 AM,66.2,66.2,100,30.37,10.0,West,9.2,-,N/A,,Clear,270,2013-09-11 06:35:00
2:55 AM,66.2,66.2,100,30.37,7.0,West,9.2,-,N/A,,Clear,270,2013-09-11 06:55:00
2:56 AM,66.2,66.2,100,30.37,7.0,West,9.2,-,N/A,,Clear,270,2013-09-11 06:56:00
3:15 AM,66.2,66.2,100,30.37,7.0,West,9.2,-,N/A,,Clear,270,2013-09-11 07:15:00
3:35 AM,66.2,66.2,100,30.36,10.0,West,9.2,-,N/A,,Clear,280,2013-09-11 07:35:00
3:55 AM,66.2,66.2,100,30.36,10.0,West,9.2,-,N/A,,Clear,270,2013-09-11 07:55:00
4:15 AM,66.2,64.4,94,30.36,10.0,West,9.2,-,N/A,,Clear,280,2013-09-11 08:15:00
4:35 AM,66.2,64.4,94,30.36,10.0,West,8.1,-,N/A,,Clear,280,2013-09-11 08:35:00
4:55 AM,66.2,64.4,94,30.36,10.0,West,6.9,-,N/A,,Clear,280,2013-09-11 08:55:00
5:15 AM,66.2,64.4,94,30.36,10.0,West,8.1,-,N/A,,Clear,280,2013-09-11 09:15:00
5:35 AM,66.2,64.4,94,30.37,10.0,WNW,6.9,-,N/A,,Clear,290,2013-09-11 09:35:00
5:55 AM,66.2,64.4,94,30.37,7.0,WNW,6.9,-,N/A,,Clear,300,2013-09-11 09:55:00
6:15 AM,66.2,64.4,94,30.37,10.0,NW,9.2,-,N/A,,Clear,310,2013-09-11 10:15:00
6:35 AM,66.2,66.2,100,30.38,7.0,NW,8.1,-,N/A,,Clear,310,2013-09-11 10:35:00
6:55 AM,66.2,66.2,100,30.38,7.0,NW,6.9,-,N/A,,Clear,310,2013-09-11 10:55:00
7:15 AM,66.2,66.2,100,30.39,7.0,WNW,8.1,-,N/A,,Clear,300,2013-09-11 11:15:00
7:35 AM,66.2,66.2,100,30.39,7.0,WNW,6.9,-,N/A,,Clear,300,2013-09-11 11:35:00
7:55 AM,66.2,66.2,100,30.39,7.0,WNW,8.1,-,N/A,,Clear,300,2013-09-11 11:55:00
8:15 AM,68.0,66.2,94,30.40,7.0,WNW,6.9,-,N/A,,Clear,300,2013-09-11 12:15:00
8:35 AM,69.8,66.2,88,30.40,7.0,NW,6.9,-,N/A,,Clear,310,2013-09-11 12:35:00
8:55 AM,69.8,66.2,88,30.40,7.0,NW,8.1,-,N/A,,Clear,310,2013-09-11 12:55:00
9:15 AM,69.8,66.2,88,30.40,7.0,NW,8.1,-,N/A,,Clear,310,2013-09-11 13:15:00
9:35 AM,69.8,66.2,88,30.40,7.0,NW,6.9,-,N/A,,Clear,310,2013-09-11 13:35:00
9:55 AM,71.6,68.0,88,30.40,7.0,WNW,8.1,-,N/A,,Clear,300,2013-09-11 13:55:00
10:15 AM,71.6,68.0,88,30.40,7.0,WNW,5.8,-,N/A,,Clear,290,2013-09-11 14:15:00
10:35 AM,71.6,68.0,88,30.39,7.0,WNW,6.9,-,N/A,,Clear,300,2013-09-11 14:35:00
10:55 AM,71.6,68.0,88,30.39,7.0,WNW,8.1,-,N/A,,Clear,300,2013-09-11 14:55:00
11:09 AM,71.6,68.0,88,30.39,10.0,WNW,8.1,-,N/A,,Clear,290,2013-09-11 15:09:00
11:15 AM,73.4,68.0,83,30.39,10.0,NNW,9.2,-,N/A,,Clear,330,2013-09-11 15:15:00
11:28 AM,73.4,66.2,78,30.39,10.0,WNW,6.9,-,N/A,,Clear,300,2013-09-11 15:28:00
11:35 AM,73.4,68.0,83,30.39,10.0,NW,6.9,-,N/A,,Clear,320,2013-09-11 15:35:00
11:48 AM,73.4,68.0,83,30.39,10.0,WNW,6.9,-,N/A,,Clear,300,2013-09-11 15:48:00
11:55 AM,73.4,66.2,78,30.38,10.0,NW,6.9,-,N/A,,Scattered Clouds,310,2013-09-11 15:55:00
12:09 PM,73.4,66.2,78,30.38,10.0,North,5.8,-,N/A,,Scattered Clouds,350,2013-09-11 16:09:00
12:15 PM,73.4,66.2,78,30.38,10.0,NNW,5.8,-,N/A,,Mostly Cloudy,330,2013-09-11 16:15:00
12:35 PM,71.6,66.2,83,30.37,10.0,Calm,Calm,-,N/A,,Mostly Cloudy,0,2013-09-11 16:35:00
12:49 PM,73.4,66.2,78,30.37,10.0,Calm,Calm,-,N/A,,Mostly Cloudy,0,2013-09-11 16:49:00
12:55 PM,73.4,66.2,78,30.36,10.0,Calm,Calm,-,N/A,,Scattered Clouds,0,2013-09-11 16:55:00
1:09 PM,73.4,66.2,78,30.36,10.0,Calm,Calm,-,N/A,,Scattered Clouds,0,2013-09-11 17:09:00
1:15 PM,75.2,66.2,73,30.36,10.0,ESE,3.5,-,N/A,,Clear,120,2013-09-11 17:15:00
1:35 PM,77.0,66.2,69,30.35,10.0,South,5.8,-,N/A,,Scattered Clouds,170,2013-09-11 17:35:00
1:55 PM,78.8,66.2,65,30.34,10.0,Calm,Calm,-,N/A,,Scattered Clouds,0,2013-09-11 17:55:00
2:15 PM,75.2,64.4,69,30.33,10.0,ESE,3.5,-,N/A,,Scattered Clouds,110,2013-09-11 18:15:00
2:35 PM,77.0,64.4,65,30.33,10.0,South,4.6,-,N/A,,Scattered Clouds,170,2013-09-11 18:35:00
2:55 PM,78.8,64.4,61,30.32,10.0,SSW,3.5,-,N/A,,Mostly Cloudy,200,2013-09-11 18:55:00
3:15 PM,77.0,66.2,69,30.32,7.0,SW,3.5,-,N/A,,Scattered Clouds,220,2013-09-11 19:15:00
3:35 PM,75.2,66.2,73,30.31,7.0,Calm,Calm,-,N/A,,Clear,0,2013-09-11 19:35:00
3:55 PM,75.2,64.4,69,30.31,7.0,SSW,4.6,-,N/A,,Scattered Clouds,210,2013-09-11 19:55:00
4:15 PM,75.2,66.2,73,30.31,7.0,West,4.6,-,N/A,,Overcast,260,2013-09-11 20:15:00
4:35 PM,73.4,66.2,78,30.30,5.0,West,8.1,-,N/A,,Haze,270,2013-09-11 20:35:00
4:55 PM,73.4,66.2,78,30.30,7.0,WSW,10.4,-,N/A,Thunderstorm,Thunderstorm,250,2013-09-11 20:55:00
5:15 PM,73.4,66.2,78,30.30,7.0,West,10.4,-,N/A,Thunderstorm,Mostly Cloudy,260,2013-09-11 21:15:00
5:35 PM,73.4,66.2,78,30.29,7.0,West,9.2,-,N/A,,Scattered Clouds,280,2013-09-11 21:35:00
5:55 PM,71.6,66.2,83,30.29,10.0,West,6.9,-,N/A,,Clear,260,2013-09-11 21:55:00
6:15 PM,71.6,64.4,78,30.29,10.0,West,8.1,-,N/A,,Clear,260,2013-09-11 22:15:00
6:35 PM,71.6,66.2,83,30.30,10.0,West,6.9,-,N/A,,Scattered Clouds,270,2013-09-11 22:35:00
6:55 PM,69.8,66.2,88,30.30,10.0,West,8.1,-,N/A,,Scattered Clouds,280,2013-09-11 22:55:00
7:15 PM,69.8,66.2,88,30.29,10.0,West,6.9,-,N/A,,Clear,280,2013-09-11 23:15:00
7:35 PM,69.8,64.4,83,30.28,10.0,West,9.2,-,N/A,,Clear,280,2013-09-11 23:35:00
7:55 PM,69.8,64.4,83,30.29,10.0,West,8.1,-,N/A,,Clear,270,2013-09-11 23:55:00
8:15 PM,69.8,64.4,83,30.30,10.0,West,8.1,-,N/A,,Clear,270,2013-09-12 00:15:00
8:35 PM,69.8,64.4,83,30.30,10.0,West,8.1,-,N/A,,Scattered Clouds,270,2013-09-12 00:35:00
8:55 PM,69.8,64.4,83,30.29,10.0,West,10.4,-,N/A,,Clear,270,2013-09-12 00:55:00
9:15 PM,69.8,64.4,83,30.29,10.0,West,9.2,-,N/A,,Clear,280,2013-09-12 01:15:00
9:35 PM,68.0,62.6,83,30.29,10.0,West,9.2,-,N/A,,Clear,280,2013-09-12 01:35:00
9:55 PM,68.0,64.4,88,30.28,10.0,West,10.4,-,N/A,,Clear,270,2013-09-12 01:55:00
10:15 PM,68.0,64.4,88,30.28,10.0,West,11.5,-,N/A,,Clear,270,2013-09-12 02:15:00
10:35 PM,66.2,64.4,94,30.28,10.0,West,10.4,-,N/A,,Clear,270,2013-09-12 02:35:00
10:55 PM,66.2,64.4,94,30.28,7.0,West,8.1,-,N/A,,Clear,270,2013-09-12 02:55:00
11:15 PM,66.2,66.2,100,30.27,4.0,West,10.4,-,N/A,,Clear,280,2013-09-12 03:15:00
11:35 PM,66.2,66.2,100,30.27,2.0,West,11.5,-,N/A,,Mostly Cloudy,280,2013-09-12 03:35:00
11:55 PM,66.2,66.2,100,30.27,0.2,West,10.4,-,N/A,Rain,Light Rain,280,2013-09-12 03:55:00